| time (UTC) | temp F | wind direction | speed MPH | gust MPH | rain 1hr in | rain 24hr in | rain mn in | humidity % | barometer mb |
| 20260503195840 | 66 | 224 | 4.0 | 11.0 | 0.00 | 0.00 | 0.00 | 66 | 1013.7 |
| 20260503195335 | 67 | 0 | 4.0 | 11.0 | 0.00 | 0.00 | 0.00 | 65 | 1013.8 |
| 20260503194839 | 66 | 163 | 4.0 | 10.0 | 0.00 | 0.00 | 0.00 | 66 | 1013.8 |
| 20260503194336 | 67 | 0 | 4.0 | 9.0 | 0.00 | 0.00 | 0.00 | 67 | 1013.8 |
| 20260503193838 | 67 | 215 | 4.0 | 10.0 | 0.00 | 0.00 | 0.00 | 67 | 1013.8 |
| 20260503193335 | 67 | 182 | 4.0 | 11.0 | 0.00 | 0.00 | 0.00 | 67 | 1013.8 |
| 20260503192835 | 67 | 0 | 4.0 | 11.0 | 0.00 | 0.00 | 0.00 | 68 | 1013.9 |
| 20260503192335 | 66 | 0 | 5.0 | 12.0 | 0.00 | 0.00 | 0.00 | 69 | 1013.9 |
| 20260503191836 | 66 | 257 | 4.0 | 12.0 | 0.00 | 0.00 | 0.00 | 69 | 1013.9 |
| 20260503191337 | 66 | 194 | 4.0 | 10.0 | 0.00 | 0.00 | 0.00 | 71 | 1013.9 |
| 20260503190838 | 65 | 200 | 4.0 | 10.0 | 0.00 | 0.00 | 0.00 | 71 | 1013.9 |
| 20260503190338 | 65 | 0 | 4.0 | 9.0 | 0.00 | 0.00 | 0.00 | 72 | 1014.0 |
| 20260503185833 | 65 | 304 | 3.0 | 8.0 | 0.00 | 0.00 | 0.00 | 70 | 1014.0 |
| 20260503185714 | 65 | 215 | 3.0 | 8.0 | 0.00 | 0.00 | 0.00 | 71 | 1014.1 |
| 20260503185205 | 65 | 0 | 3.0 | 8.0 | 0.00 | 0.00 | 0.00 | 71 | 1014.1 |
| 20260503184336 | 65 | 0 | 3.0 | 8.0 | 0.00 | 0.00 | 0.00 | 71 | 1014.1 |
| 20260503183833 | 65 | 265 | 2.0 | 6.0 | 0.00 | 0.00 | 0.00 | 71 | 1014.1 |
| 20260503183332 | 65 | 154 | 2.0 | 6.0 | 0.00 | 0.00 | 0.00 | 71 | 1014.2 |
| 20260503182834 | 65 | 252 | 2.0 | 4.0 | 0.00 | 0.00 | 0.00 | 73 | 1014.2 |
| 20260503182333 | 64 | 0 | 2.0 | 5.0 | 0.00 | 0.00 | 0.00 | 73 | 1014.1 |
| 20260503181835 | 64 | 323 | 2.0 | 5.0 | 0.00 | 0.00 | 0.00 | 75 | 1014.2 |
| 20260503181333 | 63 | 300 | 2.0 | 4.0 | 0.00 | 0.00 | 0.00 | 76 | 1014.2 |
| 20260503180838 | 63 | 279 | 2.0 | 5.0 | 0.00 | 0.00 | 0.00 | 76 | 1014.3 |
| 20260503180331 | 63 | 270 | 2.0 | 6.0 | 0.00 | 0.00 | 0.00 | 77 | 1014.3 |
| 20260503180219 | 62 | 266 | 2.0 | 6.0 | 0.00 | 0.00 | 0.00 | 77 | 1014.4 |
| 20260503175327 | 63 | 193 | 2.0 | 6.0 | 0.00 | 0.00 | 0.00 | 77 | 1014.5 |
| 20260503174826 | 63 | 0 | 2.0 | 6.0 | 0.00 | 0.00 | 0.00 | 78 | 1014.5 |
| 20260503174327 | 62 | 0 | 2.0 | 5.0 | 0.00 | 0.00 | 0.00 | 78 | 1014.5 |
| 20260503173825 | 62 | 194 | 2.0 | 5.0 | 0.00 | 0.00 | 0.00 | 77 | 1014.4 |
| 20260503173327 | 62 | 0 | 2.0 | 6.0 | 0.00 | 0.00 | 0.00 | 77 | 1014.5 |
| 20260503172828 | 62 | 0 | 3.0 | 7.0 | 0.00 | 0.00 | 0.00 | 78 | 1014.4 |
| 20260503172325 | 62 | 202 | 2.0 | 8.0 | 0.00 | 0.00 | 0.00 | 78 | 1014.4 |
| 20260503171827 | 62 | 0 | 2.0 | 8.0 | 0.00 | 0.00 | 0.00 | 78 | 1014.2 |
| 20260503171547 | 62 | 0 | 2.0 | 8.0 | 0.00 | 0.00 | 0.00 | 78 | 1014.2 |
| 20260503170821 | 62 | 0 | 3.0 | 8.0 | 0.00 | 0.00 | 0.00 | 78 | 1014.0 |
| 20260503170320 | 61 | 262 | 3.0 | 8.0 | 0.00 | 0.00 | 0.00 | 79 | 1014.0 |
| 20260503150805 | 60 | 247 | 1.0 | 4.0 | 0.00 | 0.00 | 0.00 | 82 | 1013.5 |
| 20260503150306 | 60 | 294 | 1.0 | 3.0 | 0.00 | 0.00 | 0.00 | 82 | 1013.4 |
| 20260503140244 | 59 | 300 | 1.0 | 3.0 | 0.00 | 0.00 | 0.00 | 85 | 1012.6 |
| 20260503131236 | 59 | 281 | 2.0 | 4.0 | 0.00 | 0.00 | 0.00 | 87 | 1012.3 |
| 20260503131159 | 59 | 274 | 2.0 | 5.0 | 0.00 | 0.00 | 0.00 | 88 | 1012.3 |
| 20260503130237 | 59 | 267 | 2.0 | 6.0 | 0.00 | 0.00 | 0.00 | 88 | 1012.3 |
| 20260503130142 | 59 | 257 | 3.0 | 7.0 | 0.00 | 0.00 | 0.00 | 88 | 1012.3 |
| 20260503110727 | 60 | 205 | 0.0 | 0.0 | 0.00 | 0.00 | 0.00 | 82 | 1012.2 |
| 20260503110243 | 60 | 205 | 0.0 | 0.0 | 0.00 | 0.00 | 0.00 | 82 | 1012.3 |
| 20260503090204 | 60 | 209 | 1.0 | 4.0 | 0.00 | 0.00 | 0.00 | 84 | 1012.8 |
| 20260503081202 | 60 | 207 | 2.0 | 5.0 | 0.00 | 0.00 | 0.00 | 85 | 1012.9 |
| 20260503080952 | 60 | 196 | 3.0 | 8.0 | 0.00 | 0.00 | 0.00 | 85 | 1012.9 |
| 20260503080856 | 60 | 0 | 2.0 | 8.0 | 0.00 | 0.00 | 0.00 | 85 | 1012.9 |
| 20260503072659 | 60 | 211 | 1.0 | 4.0 | 0.00 | 0.00 | 0.00 | 88 | 1012.7 |
| 20260503072202 | 60 | 0 | 2.0 | 5.0 | 0.00 | 0.00 | 0.00 | 88 | 1012.6 |
| 20260503071700 | 60 | 208 | 2.0 | 5.0 | 0.00 | 0.00 | 0.00 | 88 | 1012.6 |
| 20260503071157 | 60 | 257 | 2.0 | 5.0 | 0.00 | 0.00 | 0.00 | 88 | 1012.5 |
| 20260503071113 | 60 | 254 | 2.0 | 5.0 | 0.00 | 0.00 | 0.00 | 89 | 1012.5 |
| 20260503070156 | 60 | 212 | 1.0 | 4.0 | 0.00 | 0.00 | 0.00 | 89 | 1012.4 |
| 20260503060152 | 60 | 219 | 2.0 | 7.0 | 0.00 | 0.00 | 0.00 | 90 | 1012.5 |
| 20260503054653 | 60 | 0 | 2.0 | 4.0 | 0.00 | 0.00 | 0.00 | 89 | 1012.4 |
| 20260503054154 | 60 | 195 | 2.0 | 4.0 | 0.00 | 0.00 | 0.00 | 89 | 1012.5 |
| 20260503054127 | 60 | 257 | 2.0 | 6.0 | 0.00 | 0.00 | 0.00 | 90 | 1012.5 |
| 20260503053634 | 60 | 0 | 2.0 | 6.0 | 0.00 | 0.00 | 0.00 | 90 | 1012.6 |
| 20260503053059 | 60 | 277 | 2.0 | 5.0 | 0.00 | 0.00 | 0.00 | 90 | 1012.5 |
| 20260503052155 | 60 | 212 | 2.0 | 6.0 | 0.00 | 0.00 | 0.00 | 90 | 1012.6 |
| 20260503051651 | 60 | 0 | 2.0 | 6.0 | 0.00 | 0.00 | 0.00 | 90 | 1012.6 |
| 20260503051152 | 60 | 229 | 1.0 | 3.0 | 0.00 | 0.00 | 0.00 | 91 | 1012.6 |
| 20260503051134 | 60 | 0 | 1.0 | 5.0 | 0.00 | 0.00 | 0.00 | 90 | 1012.6 |
| 20260503050851 | 60 | 229 | 1.0 | 3.0 | 0.00 | 0.00 | 0.00 | 91 | 1012.6 |
| 20260503045629 | 60 | 279 | 2.0 | 8.0 | 0.00 | 0.00 | 0.00 | 90 | 1012.6 |
| 20260503045125 | 60 | 225 | 3.0 | 8.0 | 0.00 | 0.00 | 0.00 | 90 | 1012.5 |
| 20260503044615 | 60 | 190 | 2.0 | 5.0 | 0.00 | 0.00 | 0.00 | 91 | 1012.4 |
| 20260503044108 | 60 | 242 | 2.0 | 4.0 | 0.00 | 0.00 | 0.00 | 91 | 1012.4 |
| 20260503043842 | 60 | 202 | 2.0 | 4.0 | 0.00 | 0.00 | 0.00 | 91 | 1012.4 |
| 20260503043106 | 60 | 0 | 2.0 | 4.0 | 0.00 | 0.00 | 0.00 | 90 | 1012.3 |
| 20260503042837 | 60 | 179 | 2.0 | 5.0 | 0.00 | 0.00 | 0.00 | 90 | 1012.3 |
| 20260503042111 | 60 | 231 | 2.0 | 5.0 | 0.00 | 0.00 | 0.00 | 90 | 1012.1 |
| 20260503041618 | 60 | 257 | 2.0 | 5.0 | 0.00 | 0.00 | 0.00 | 90 | 1012.0 |
| 20260503041340 | 60 | 284 | 2.0 | 4.0 | 0.00 | 0.00 | 0.00 | 90 | 1011.9 |
| 20260503040605 | 60 | 265 | 2.0 | 5.0 | 0.00 | 0.00 | 0.00 | 90 | 1011.8 |
| 20260503040503 | 60 | 284 | 3.0 | 7.0 | 0.00 | 0.00 | 0.00 | 90 | 1011.6 |
| 20260503040307 | 60 | 216 | 2.0 | 7.0 | 0.00 | 0.00 | 0.00 | 90 | 1011.7 |
| 20260503040157 | 60 | 284 | 3.0 | 7.0 | 0.00 | 0.00 | 0.00 | 90 | 1011.6 |
| 20260503035104 | 60 | 0 | 2.0 | 5.0 | 0.00 | 0.00 | 0.00 | 90 | 1011.6 |
| 20260503034828 | 60 | 250 | 2.0 | 6.0 | 0.00 | 0.00 | 0.00 | 90 | 1011.6 |
| 20260503034610 | 60 | 250 | 2.0 | 6.0 | 0.00 | 0.00 | 0.00 | 90 | 1011.6 |
| 20260503034102 | 60 | 200 | 3.0 | 6.0 | 0.00 | 0.00 | 0.00 | 89 | 1011.6 |
| 20260503034036 | 60 | 273 | 3.0 | 6.0 | 0.00 | 0.00 | 0.00 | 89 | 1011.4 |
| 20260503033102 | 60 | 290 | 3.0 | 5.0 | 0.00 | 0.00 | 0.00 | 89 | 1011.2 |
| 20260503033055 | 60 | 256 | 2.0 | 5.0 | 0.00 | 0.00 | 0.00 | 89 | 1011.2 |
| 20260503032106 | 60 | 242 | 1.0 | 5.0 | 0.00 | 0.00 | 0.00 | 89 | 1010.9 |
| 20260503031827 | 60 | 248 | 1.0 | 5.0 | 0.00 | 0.00 | 0.00 | 89 | 1010.8 |
| 20260503031103 | 60 | 236 | 2.0 | 5.0 | 0.00 | 0.00 | 0.00 | 88 | 1010.8 |
| 20260503030604 | 60 | 227 | 2.0 | 5.0 | 0.00 | 0.00 | 0.00 | 88 | 1010.7 |
| 20260503030106 | 60 | 0 | 2.0 | 5.0 | 0.00 | 0.00 | 0.00 | 88 | 1010.7 |
| 20260503025608 | 60 | 223 | 2.0 | 6.0 | 0.00 | 0.00 | 0.00 | 88 | 1010.6 |
| 20260503025102 | 60 | 0 | 3.0 | 6.0 | 0.00 | 0.00 | 0.00 | 88 | 1010.4 |
| 20260503024603 | 60 | 220 | 3.0 | 9.0 | 0.00 | 0.00 | 0.00 | 88 | 1010.4 |
| 20260503024106 | 60 | 261 | 3.0 | 9.0 | 0.00 | 0.00 | 0.00 | 87 | 1010.3 |
| 20260503023602 | 61 | 259 | 3.0 | 7.0 | 0.00 | 0.00 | 0.00 | 87 | 1010.3 |
| 20260503023101 | 61 | 273 | 3.0 | 7.0 | 0.00 | 0.00 | 0.00 | 87 | 1010.3 |
| 20260503023013 | 61 | 209 | 3.0 | 8.0 | 0.00 | 0.00 | 0.00 | 86 | 1010.3 |
| 20260503022055 | 61 | 267 | 3.0 | 8.0 | 0.00 | 0.00 | 0.00 | 86 | 1010.2 |
| 20260503021556 | 61 | 252 | 3.0 | 8.0 | 0.00 | 0.00 | 0.00 | 86 | 1010.2 |
| 20260503021056 | 62 | 0 | 2.0 | 7.0 | 0.00 | 0.00 | 0.00 | 85 | 1010.2 |
| 20260503020552 | 62 | 0 | 2.0 | 7.0 | 0.00 | 0.00 | 0.00 | 85 | 1010.3 |
| 20260503020434 | 62 | 218 | 3.0 | 9.0 | 0.00 | 0.00 | 0.00 | 85 | 1010.2 |
| 20260503015754 | 62 | 217 | 3.0 | 10.0 | 0.00 | 0.00 | 0.00 | 84 | 1010.2 |
| 20260503015709 | 62 | 252 | 3.0 | 9.0 | 0.00 | 0.00 | 0.00 | 84 | 1010.1 |
| 20260503015251 | 62 | 261 | 3.0 | 7.0 | 0.00 | 0.00 | 0.00 | 84 | 1010.3 |
| 20260503014050 | 62 | 250 | 4.0 | 10.0 | 0.00 | 0.00 | 0.00 | 83 | 1010.4 |
| 20260503013553 | 63 | 0 | 3.0 | 10.0 | 0.00 | 0.00 | 0.00 | 83 | 1010.3 |
| 20260503013051 | 63 | 267 | 3.0 | 7.0 | 0.00 | 0.00 | 0.00 | 82 | 1010.1 |
| 20260503012549 | 63 | 266 | 3.0 | 8.0 | 0.00 | 0.00 | 0.00 | 82 | 1010.0 |
| 20260503012050 | 64 | 205 | 3.0 | 8.0 | 0.00 | 0.00 | 0.00 | 81 | 1010.1 |
| 20260503011547 | 64 | 0 | 3.0 | 9.0 | 0.00 | 0.00 | 0.00 | 81 | 1010.0 |
| 20260503011034 | 64 | 269 | 3.0 | 9.0 | 0.00 | 0.00 | 0.00 | 80 | 1010.0 |
| 20260503010539 | 65 | 198 | 3.0 | 8.0 | 0.00 | 0.00 | 0.00 | 80 | 1010.1 |
| 20260503010033 | 65 | 258 | 3.0 | 8.0 | 0.00 | 0.00 | 0.00 | 80 | 1010.2 |
| 20260503005532 | 65 | 214 | 3.0 | 8.0 | 0.00 | 0.00 | 0.00 | 80 | 1010.1 |
| 20260503005032 | 65 | 0 | 3.0 | 8.0 | 0.00 | 0.00 | 0.00 | 79 | 1010.1 |
| 20260503004533 | 65 | 264 | 3.0 | 7.0 | 0.00 | 0.00 | 0.00 | 78 | 1010.0 |
| 20260503004029 | 65 | 270 | 3.0 | 6.0 | 0.00 | 0.00 | 0.00 | 79 | 1010.1 |
| 20260503003534 | 65 | 200 | 3.0 | 8.0 | 0.00 | 0.00 | 0.00 | 79 | 1010.0 |
| 20260503003035 | 65 | 225 | 3.0 | 8.0 | 0.00 | 0.00 | 0.00 | 79 | 1010.0 |
| 20260503002530 | 65 | 186 | 3.0 | 7.0 | 0.00 | 0.00 | 0.00 | 79 | 1010.1 |
| 20260503002031 | 65 | 0 | 3.0 | 9.0 | 0.00 | 0.00 | 0.00 | 79 | 1010.3 |
| 20260503001534 | 65 | 0 | 4.0 | 9.0 | 0.00 | 0.00 | 0.00 | 79 | 1010.2 |
| 20260503001034 | 65 | 166 | 4.0 | 9.0 | 0.00 | 0.00 | 0.00 | 80 | 1010.3 |
| 20260503001013 | 65 | 0 | 4.0 | 12.0 | 0.00 | 0.00 | 0.00 | 80 | 1010.3 |
| 20260503001004 | 65 | 0 | 3.0 | 8.0 | 0.00 | 0.00 | 0.00 | 79 | 1010.3 |
| 20260503000556 | 65 | 203 | 4.0 | 9.0 | 0.00 | 0.00 | 0.00 | 79 | 1010.2 |
| 20260502235714 | 65 | 279 | 3.0 | 8.0 | 0.00 | 0.00 | 0.00 | 79 | 1010.3 |
| 20260502234513 | 65 | 0 | 4.0 | 12.0 | 0.00 | 0.00 | 0.00 | 80 | 1010.2 |
| 20260502234424 | 65 | 192 | 4.0 | 9.0 | 0.00 | 0.00 | 0.00 | 79 | 1010.2 |
| 20260502233514 | 65 | 242 | 4.0 | 8.0 | 0.00 | 0.00 | 0.00 | 80 | 1010.3 |
| 20260502233017 | 65 | 0 | 4.0 | 8.0 | 0.00 | 0.00 | 0.00 | 80 | 1010.5 |
| 20260502232514 | 65 | 262 | 3.0 | 8.0 | 0.00 | 0.00 | 0.00 | 80 | 1010.6 |
| 20260502232016 | 65 | 0 | 3.0 | 8.0 | 0.00 | 0.00 | 0.00 | 80 | 1010.5 |
| 20260502231510 | 65 | 0 | 4.0 | 9.0 | 0.00 | 0.00 | 0.00 | 80 | 1010.5 |
| 20260502231008 | 65 | 200 | 4.0 | 9.0 | 0.00 | 0.00 | 0.00 | 80 | 1010.6 |
| 20260502230510 | 65 | 210 | 3.0 | 9.0 | 0.00 | 0.00 | 0.00 | 80 | 1010.7 |
| 20260502230008 | 65 | 0 | 4.0 | 10.0 | 0.00 | 0.00 | 0.00 | 80 | 1010.6 |
| 20260502225510 | 65 | 253 | 4.0 | 10.0 | 0.00 | 0.00 | 0.00 | 80 | 1010.7 |
| 20260502225005 | 65 | 212 | 4.0 | 9.0 | 0.00 | 0.00 | 0.00 | 80 | 1010.8 |
| 20260502224502 | 65 | 0 | 5.0 | 13.0 | 0.00 | 0.00 | 0.00 | 80 | 1011.1 |
| 20260502224002 | 65 | 259 | 5.0 | 13.0 | 0.00 | 0.00 | 0.00 | 80 | 1011.2 |
| 20260502223502 | 65 | 0 | 5.0 | 10.0 | 0.00 | 0.00 | 0.00 | 80 | 1011.4 |
| 20260502223003 | 65 | 274 | 4.0 | 10.0 | 0.00 | 0.00 | 0.00 | 80 | 1011.6 |
| 20260502222503 | 65 | 254 | 4.0 | 12.0 | 0.00 | 0.00 | 0.00 | 80 | 1011.8 |
| 20260502222003 | 65 | 211 | 4.0 | 12.0 | 0.00 | 0.00 | 0.00 | 80 | 1011.8 |
| 20260502221505 | 65 | 196 | 5.0 | 10.0 | 0.00 | 0.00 | 0.00 | 80 | 1011.9 |
| 20260502221002 | 65 | 0 | 4.0 | 8.0 | 0.00 | 0.00 | 0.00 | 80 | 1012.0 |
| 20260502220502 | 65 | 257 | 5.0 | 9.0 | 0.00 | 0.00 | 0.00 | 80 | 1012.1 |
| 20260502220004 | 65 | 277 | 5.0 | 12.0 | 0.00 | 0.00 | 0.00 | 80 | 1012.2 |
| 20260502215502 | 65 | 263 | 5.0 | 12.0 | 0.00 | 0.00 | 0.00 | 80 | 1012.2 |
| 20260502215006 | 65 | 232 | 5.0 | 10.0 | 0.00 | 0.00 | 0.00 | 79 | 1012.3 |
| 20260502214503 | 66 | 171 | 5.0 | 10.0 | 0.00 | 0.00 | 0.00 | 79 | 1012.5 |
| 20260502214005 | 66 | 215 | 4.0 | 10.0 | 0.00 | 0.00 | 0.00 | 79 | 1012.5 |
| 20260502213847 | 67 | 212 | 5.0 | 10.0 | 0.00 | 0.00 | 0.00 | 78 | 1012.4 |
| 20260502213007 | 66 | 0 | 5.0 | 10.0 | 0.00 | 0.00 | 0.00 | 79 | 1012.6 |
| 20260502212502 | 66 | 0 | 5.0 | 13.0 | 0.00 | 0.00 | 0.00 | 78 | 1012.6 |
| 20260502212008 | 66 | 0 | 6.0 | 13.0 | 0.00 | 0.00 | 0.00 | 78 | 1012.7 |
| 20260502211505 | 67 | 182 | 5.0 | 11.0 | 0.00 | 0.00 | 0.00 | 77 | 1012.8 |
| 20260502211210 | 68 | 211 | 5.0 | 10.0 | 0.00 | 0.00 | 0.00 | 77 | 1012.8 |
| 20260502211035 | 67 | 0 | 5.0 | 11.0 | 0.00 | 0.00 | 0.00 | 78 | 1012.8 |
| 20260502210007 | 67 | 182 | 5.0 | 11.0 | 0.00 | 0.00 | 0.00 | 78 | 1012.8 |
| 20260502205502 | 67 | 188 | 5.0 | 11.0 | 0.00 | 0.00 | 0.00 | 78 | 1012.8 |
| 20260502205006 | 68 | 199 | 5.0 | 11.0 | 0.00 | 0.00 | 0.00 | 77 | 1012.8 |
| 20260502204501 | 68 | 250 | 4.0 | 11.0 | 0.00 | 0.00 | 0.00 | 78 | 1012.9 |
| 20260502204237 | 68 | 221 | 4.0 | 10.0 | 0.00 | 0.00 | 0.00 | 78 | 1012.8 |
| 20260502203503 | 68 | 264 | 4.0 | 10.0 | 0.00 | 0.00 | 0.00 | 78 | 1012.8 |
| 20260502203006 | 68 | 0 | 5.0 | 10.0 | 0.00 | 0.00 | 0.00 | 77 | 1012.8 |
| 20260502202502 | 68 | 221 | 4.0 | 8.0 | 0.00 | 0.00 | 0.00 | 78 | 1012.8 |
| 20260502202006 | 67 | 0 | 4.0 | 9.0 | 0.00 | 0.00 | 0.00 | 79 | 1012.9 |
| 20260502201503 | 67 | 205 | 4.0 | 10.0 | 0.00 | 0.00 | 0.00 | 79 | 1012.9 |
| 20260502201006 | 67 | 0 | 4.0 | 10.0 | 0.00 | 0.00 | 0.00 | 79 | 1012.8 |
| 20260502200503 | 67 | 214 | 4.0 | 10.0 | 0.00 | 0.00 | 0.00 | 79 | 1012.8 |